User: anonymous   Login
Location: Allison's Woods
(35.8809°N, 80.8140°W)
Time: 03:06:23
(UTC-05:00)
Language:

Iridium 39 - Orbit

View from above orbital plane
View from above orbital plane
View from above satellite
View from above satellite

Ground track
Ground track

The orbit data is extracted from the following two-line orbital elements,

1 25042U 97069D   17017.58919114  .00000090  00000-0  19484-4 0  9997
2 25042  86.3916  83.4821 0021262  93.8421 266.5213 14.46121256  4959
Epoch (UTC): 17 January 2017 14:08:26
Eccentricity: 0.0021262
inclination: 86.3916°
perigee height: 723 km
apogee height: 753 km
right ascension of ascending node: 83.4821°
argument of perigee: 93.8421°
revolutions per day: 14.46121256
mean anomaly at epoch: 266.5213°
orbit number at epoch: 495

The dashed part of the orbit path shows where the satellite is in the earth's shadow,  

DLR